Time,TemperatureF,DewpointF,PressureIn,WindDirection,WindDirectionDegrees,WindSpeedMPH,WindSpeedGustMPH,Humidity,HourlyPrecipIn,Conditions,Clouds,dailyrainin,SoftwareType,DateUTC
2013-06-02 00:02:00,62.1,38.1,29.78,North,355,0.0,0.0,41,0.00,,,0.00,WeatherTracker,2013-06-02 07:02:00,
2013-06-02 00:07:00,61.8,37.8,29.78,North,5,0.0,0.0,41,0.00,,,0.00,WeatherTracker,2013-06-02 07:07:00,
2013-06-02 00:12:00,61.2,37.9,29.78,North,360,0.0,1.0,42,0.00,,,0.00,WeatherTracker,2013-06-02 07:12:00,
2013-06-02 00:17:00,60.2,38.2,29.77,North,360,0.0,1.0,44,0.00,,,0.00,WeatherTracker,2013-06-02 07:17:00,
2013-06-02 00:23:00,59.7,38.3,29.77,North,10,0.0,1.0,45,0.00,,,0.00,WeatherTracker,2013-06-02 07:23:00,
2013-06-02 00:28:00,59.6,38.2,29.77,NNE,15,0.0,0.0,45,0.00,,,0.00,WeatherTracker,2013-06-02 07:28:00,
2013-06-02 00:33:00,59.1,38.3,29.77,NNE,15,0.0,1.0,46,0.00,,,0.00,WeatherTracker,2013-06-02 07:33:00,
2013-06-02 00:38:00,59.3,38.5,29.77,NNE,14,0.0,1.0,46,0.00,,,0.00,WeatherTracker,2013-06-02 07:38:00,
2013-06-02 00:43:00,59.4,38.6,29.77,NNE,15,0.0,0.0,46,0.00,,,0.00,WeatherTracker,2013-06-02 07:43:00,
2013-06-02 00:48:00,59.8,37.8,29.76,North,9,0.0,2.0,44,0.00,,,0.00,WeatherTracker,2013-06-02 07:48:00,
2013-06-02 00:53:00,60.6,38.0,29.77,North,10,0.0,2.0,43,0.00,,,0.00,WeatherTracker,2013-06-02 07:53:00,
2013-06-02 00:58:00,60.4,37.8,29.76,North,10,0.0,1.0,43,0.00,,,0.00,WeatherTracker,2013-06-02 07:58:00,
2013-06-02 01:03:00,59.8,36.7,29.76,North,10,0.0,1.0,42,0.00,,,0.00,WeatherTracker,2013-06-02 08:03:00,
2013-06-02 01:08:00,59.3,35.6,29.76,North,10,0.0,1.0,41,0.00,,,0.00,WeatherTracker,2013-06-02 08:08:00,
2013-06-02 01:13:00,60.1,35.1,29.76,North,10,0.0,1.0,39,0.00,,,0.00,WeatherTracker,2013-06-02 08:13:00,
2013-06-02 01:18:00,59.5,35.2,29.76,North,9,0.0,1.0,40,0.00,,,0.00,WeatherTracker,2013-06-02 08:18:00,
2013-06-02 01:23:00,59.2,35.5,29.75,North,10,0.0,0.0,41,0.00,,,0.00,WeatherTracker,2013-06-02 08:23:00,
2013-06-02 01:28:00,57.5,36.9,29.76,NNE,19,0.0,0.0,46,0.00,,,0.00,WeatherTracker,2013-06-02 08:28:00,
2013-06-02 01:33:00,56.6,35.5,29.75,NNE,20,0.0,0.0,45,0.00,,,0.00,WeatherTracker,2013-06-02 08:33:00,
2013-06-02 01:38:00,56.6,35.5,29.76,NNE,20,0.0,0.0,45,0.00,,,0.00,WeatherTracker,2013-06-02 08:38:00,
2013-06-02 01:43:00,-999.0,-99.9,29.75,North,-999,-999.0,0.0,-999,0.00,,,0.00,WeatherTracker,2013-06-02 08:43:00,
2013-06-02 01:48:00,-999.0,-99.9,29.75,North,-999,-999.0,0.0,-999,0.00,,,0.00,WeatherTracker,2013-06-02 08:48:00,
2013-06-02 01:53:00,-999.0,-99.9,29.75,North,-999,-999.0,0.0,-999,0.00,,,0.00,WeatherTracker,2013-06-02 08:53:00,
2013-06-02 01:58:00,-999.0,-99.9,29.74,North,-999,-999.0,0.0,-999,0.00,,,0.00,WeatherTracker,2013-06-02 08:58:00,
2013-06-02 02:03:00,-999.0,-99.9,29.74,North,-999,-999.0,0.0,-999,0.00,,,0.00,WeatherTracker,2013-06-02 09:03:00,
2013-06-02 02:08:00,-999.0,-99.9,29.74,North,-999,-999.0,0.0,-999,0.00,,,0.00,WeatherTracker,2013-06-02 09:08:00,
2013-06-02 02:13:00,-999.0,-99.9,29.73,North,-999,-999.0,0.0,-999,0.00,,,0.00,WeatherTracker,2013-06-02 09:13:00,
2013-06-02 02:18:00,-999.0,-99.9,29.73,North,-999,-999.0,0.0,-999,0.00,,,0.00,WeatherTracker,2013-06-02 09:18:00,
2013-06-02 02:23:00,-999.0,-99.9,29.73,North,-999,-999.0,0.0,-999,0.00,,,0.00,WeatherTracker,2013-06-02 09:23:00,
2013-06-02 02:28:00,-999.0,-99.9,29.73,North,-999,-999.0,0.0,-999,0.00,,,0.00,WeatherTracker,2013-06-02 09:28:00,
2013-06-02 02:33:00,-999.0,-99.9,29.73,North,-999,-999.0,0.0,-999,0.00,,,0.00,WeatherTracker,2013-06-02 09:33:00,
2013-06-02 02:38:00,-999.0,-99.9,29.72,North,-999,-999.0,0.0,-999,0.00,,,0.00,WeatherTracker,2013-06-02 09:38:00,
2013-06-02 02:44:00,-999.0,-99.9,29.73,North,-999,-999.0,0.0,-999,0.00,,,0.00,WeatherTracker,2013-06-02 09:44:00,
2013-06-02 02:49:00,-999.0,-99.9,29.72,North,-999,-999.0,0.0,-999,0.00,,,0.00,WeatherTracker,2013-06-02 09:49:00,
2013-06-02 02:54:00,-999.0,-99.9,29.72,North,-999,-999.0,0.0,-999,0.00,,,0.00,WeatherTracker,2013-06-02 09:54:00,
2013-06-02 02:59:00,-999.0,-99.9,29.72,North,-999,-999.0,0.0,-999,0.00,,,0.00,WeatherTracker,2013-06-02 09:59:00,
2013-06-02 03:04:00,-999.0,-99.9,29.71,North,-999,-999.0,0.0,-999,0.00,,,0.00,WeatherTracker,2013-06-02 10:04:00,
2013-06-02 03:09:00,-999.0,-99.9,29.71,North,-999,-999.0,0.0,-999,0.00,,,0.00,WeatherTracker,2013-06-02 10:09:00,
2013-06-02 03:14:00,-999.0,-99.9,29.71,North,-999,-999.0,0.0,-999,0.00,,,0.00,WeatherTracker,2013-06-02 10:14:00,
2013-06-02 03:19:00,-999.0,-99.9,29.71,North,-999,-999.0,0.0,-999,0.00,,,0.00,WeatherTracker,2013-06-02 10:19:00,
2013-06-02 03:24:00,-999.0,-99.9,29.71,North,-999,-999.0,0.0,-999,0.00,,,0.00,WeatherTracker,2013-06-02 10:24:00,
2013-06-02 03:29:00,-999.0,-99.9,29.71,North,-999,-999.0,0.0,-999,0.00,,,0.00,WeatherTracker,2013-06-02 10:29:00,
2013-06-02 03:34:00,-999.0,-99.9,29.71,North,-999,-999.0,0.0,-999,0.00,,,0.00,WeatherTracker,2013-06-02 10:34:00,
2013-06-02 03:39:00,-999.0,-99.9,29.70,North,-999,-999.0,0.0,-999,0.00,,,0.00,WeatherTracker,2013-06-02 10:39:00,
2013-06-02 03:44:00,-999.0,-99.9,29.70,North,-999,-999.0,0.0,-999,0.00,,,0.00,WeatherTracker,2013-06-02 10:44:00,
2013-06-02 03:49:00,-999.0,-99.9,29.70,North,-999,-999.0,0.0,-999,0.00,,,0.00,WeatherTracker,2013-06-02 10:49:00,
2013-06-02 03:54:00,-999.0,-99.9,29.70,North,-999,-999.0,0.0,-999,0.00,,,0.00,WeatherTracker,2013-06-02 10:54:00,
2013-06-02 03:59:00,-999.0,-99.9,29.70,North,-999,-999.0,0.0,-999,0.00,,,0.00,WeatherTracker,2013-06-02 10:59:00,
2013-06-02 04:04:00,-999.0,-99.9,29.70,North,-999,-999.0,0.0,-999,0.00,,,0.00,WeatherTracker,2013-06-02 11:04:00,
2013-06-02 04:09:00,-999.0,-99.9,29.70,North,-999,-999.0,0.0,-999,0.00,,,0.00,WeatherTracker,2013-06-02 11:09:00,
2013-06-02 04:14:00,-999.0,-99.9,29.69,North,-999,-999.0,0.0,-999,0.00,,,0.00,WeatherTracker,2013-06-02 11:14:00,
2013-06-02 04:19:00,-999.0,-99.9,29.69,North,-999,-999.0,0.0,-999,0.00,,,0.00,WeatherTracker,2013-06-02 11:19:00,
2013-06-02 04:24:00,-999.0,-99.9,29.69,North,-999,-999.0,0.0,-999,0.00,,,0.00,WeatherTracker,2013-06-02 11:24:00,
2013-06-02 04:29:00,-999.0,-99.9,29.69,North,-999,-999.0,0.0,-999,0.00,,,0.00,WeatherTracker,2013-06-02 11:29:00,
2013-06-02 04:34:00,-999.0,-99.9,29.69,North,-999,-999.0,0.0,-999,0.00,,,0.00,WeatherTracker,2013-06-02 11:34:00,
2013-06-02 04:39:00,-999.0,-99.9,29.69,North,-999,-999.0,0.0,-999,0.00,,,0.00,WeatherTracker,2013-06-02 11:39:00,
2013-06-02 04:44:00,-999.0,-99.9,29.69,North,-999,-999.0,0.0,-999,0.00,,,0.00,WeatherTracker,2013-06-02 11:44:00,
2013-06-02 04:49:00,-999.0,-99.9,29.69,North,-999,-999.0,0.0,-999,0.00,,,0.00,WeatherTracker,2013-06-02 11:49:00,
2013-06-02 04:54:00,-999.0,-99.9,29.69,North,-999,-999.0,0.0,-999,0.00,,,0.00,WeatherTracker,2013-06-02 11:54:00,
2013-06-02 04:59:00,-999.0,-99.9,29.69,North,-999,-999.0,0.0,-999,0.00,,,0.00,WeatherTracker,2013-06-02 11:59:00,
2013-06-02 05:04:00,-999.0,-99.9,29.68,North,-999,-999.0,0.0,-999,0.00,,,0.00,WeatherTracker,2013-06-02 12:04:00,
2013-06-02 05:09:00,-999.0,-99.9,29.68,North,-999,-999.0,0.0,-999,0.00,,,0.00,WeatherTracker,2013-06-02 12:09:00,
2013-06-02 05:14:00,-999.0,-99.9,29.68,North,-999,-999.0,0.0,-999,0.00,,,0.00,WeatherTracker,2013-06-02 12:14:00,
2013-06-02 05:19:00,-999.0,-99.9,29.68,North,-999,-999.0,0.0,-999,0.00,,,0.00,WeatherTracker,2013-06-02 12:19:00,
2013-06-02 05:24:00,-999.0,-99.9,29.68,North,-999,-999.0,0.0,-999,0.00,,,0.00,WeatherTracker,2013-06-02 12:24:00,
2013-06-02 05:29:00,-999.0,-99.9,29.68,North,-999,-999.0,0.0,-999,0.00,,,0.00,WeatherTracker,2013-06-02 12:29:00,
2013-06-02 05:34:00,-999.0,-99.9,29.68,North,-999,-999.0,0.0,-999,0.00,,,0.00,WeatherTracker,2013-06-02 12:34:00,
2013-06-02 05:39:00,-999.0,-99.9,29.69,North,-999,-999.0,0.0,-999,0.00,,,0.00,WeatherTracker,2013-06-02 12:39:00,
2013-06-02 05:44:00,-999.0,-99.9,29.69,North,-999,-999.0,0.0,-999,0.00,,,0.00,WeatherTracker,2013-06-02 12:44:00,
2013-06-02 05:50:00,-999.0,-99.9,29.68,North,-999,-999.0,0.0,-999,0.00,,,0.00,WeatherTracker,2013-06-02 12:50:00,
2013-06-02 05:55:00,-999.0,-99.9,29.69,North,-999,-999.0,0.0,-999,0.00,,,0.00,WeatherTracker,2013-06-02 12:55:00,
2013-06-02 06:00:00,51.0,36.3,29.69,North,349,0.0,0.0,57,0.00,,,0.00,WeatherTracker,2013-06-02 13:00:00,
2013-06-02 06:05:00,51.2,36.5,29.69,North,350,0.0,0.0,57,0.00,,,0.00,WeatherTracker,2013-06-02 13:05:00,
2013-06-02 06:10:00,51.5,37.2,29.69,North,350,0.0,0.0,58,0.00,,,0.00,WeatherTracker,2013-06-02 13:10:00,
2013-06-02 06:15:00,52.1,37.3,29.69,NW,321,0.0,0.0,57,0.00,,,0.00,WeatherTracker,2013-06-02 13:15:00,
2013-06-02 06:20:00,52.6,38.2,29.69,NW,321,0.0,0.0,58,0.00,,,0.00,WeatherTracker,2013-06-02 13:20:00,
2013-06-02 06:25:00,53.3,38.5,29.70,NW,321,0.0,0.0,57,0.00,,,0.00,WeatherTracker,2013-06-02 13:25:00,
2013-06-02 06:30:00,53.7,38.8,29.69,NW,321,0.0,0.0,57,0.00,,,0.00,WeatherTracker,2013-06-02 13:30:00,
2013-06-02 06:35:00,53.8,39.4,29.69,NW,321,0.0,0.0,58,0.00,,,0.00,WeatherTracker,2013-06-02 13:35:00,
2013-06-02 06:40:00,54.2,40.2,29.69,NW,321,0.0,0.0,59,0.00,,,0.00,WeatherTracker,2013-06-02 13:40:00,
2013-06-02 06:45:00,54.6,39.7,29.69,NW,321,0.0,0.0,57,0.00,,,0.00,WeatherTracker,2013-06-02 13:45:00,
2013-06-02 06:50:00,55.3,40.3,29.69,NW,321,0.0,0.0,57,0.00,,,0.00,WeatherTracker,2013-06-02 13:50:00,
2013-06-02 06:55:00,56.4,40.9,29.69,NW,321,0.0,0.0,56,0.00,,,0.00,WeatherTracker,2013-06-02 13:55:00,
2013-06-02 07:00:00,57.1,41.1,29.69,NW,321,0.0,0.0,55,0.00,,,0.00,WeatherTracker,2013-06-02 14:00:00,
2013-06-02 07:05:00,57.6,42.0,29.69,NW,323,0.0,0.0,56,0.00,,,0.00,WeatherTracker,2013-06-02 14:05:00,
2013-06-02 07:10:00,58.3,42.2,29.69,NW,323,0.0,0.0,55,0.00,,,0.00,WeatherTracker,2013-06-02 14:10:00,
2013-06-02 07:15:00,59.0,41.9,29.69,NW,322,0.0,0.0,53,0.00,,,0.00,WeatherTracker,2013-06-02 14:15:00,
2013-06-02 07:20:00,59.7,42.5,29.69,NW,322,0.0,0.0,53,0.00,,,0.00,WeatherTracker,2013-06-02 14:20:00,
2013-06-02 07:25:00,60.8,42.0,29.69,NW,323,0.0,0.0,50,0.00,,,0.00,WeatherTracker,2013-06-02 14:25:00,
2013-06-02 07:30:00,61.8,40.2,29.69,South,191,0.0,0.0,45,0.00,,,0.00,WeatherTracker,2013-06-02 14:30:00,
2013-06-02 07:35:00,61.5,45.2,29.68,South,172,0.0,0.0,55,0.00,,,0.00,WeatherTracker,2013-06-02 14:35:00,
2013-06-02 07:40:00,61.0,46.6,29.68,South,172,0.0,0.0,59,0.00,,,0.00,WeatherTracker,2013-06-02 14:40:00,
2013-06-02 07:45:00,60.5,46.1,29.68,South,171,0.0,0.0,59,0.00,,,0.00,WeatherTracker,2013-06-02 14:45:00,
2013-06-02 07:50:00,60.6,45.3,29.68,South,171,0.0,0.0,57,0.00,,,0.00,WeatherTracker,2013-06-02 14:50:00,
2013-06-02 07:55:00,60.9,45.1,29.68,South,171,0.0,0.0,56,0.00,,,0.00,WeatherTracker,2013-06-02 14:55:00,
2013-06-02 08:00:00,61.7,44.9,29.68,South,170,0.0,0.0,54,0.00,,,0.00,WeatherTracker,2013-06-02 15:00:00,
2013-06-02 08:05:00,62.4,44.0,29.68,South,169,0.0,0.0,51,0.00,,,0.00,WeatherTracker,2013-06-02 15:05:00,
2013-06-02 08:10:00,63.0,44.6,29.68,South,170,0.0,0.0,51,0.00,,,0.00,WeatherTracker,2013-06-02 15:10:00,
2013-06-02 08:15:00,63.4,45.0,29.68,South,169,0.0,0.0,51,0.00,,,0.00,WeatherTracker,2013-06-02 15:15:00,
2013-06-02 08:20:00,63.4,46.0,29.67,South,170,0.0,0.0,53,0.00,,,0.00,WeatherTracker,2013-06-02 15:20:00,
2013-06-02 08:25:00,63.8,45.3,29.67,South,170,0.0,0.0,51,0.00,,,0.00,WeatherTracker,2013-06-02 15:25:00,
2013-06-02 08:30:00,64.4,46.4,29.67,South,169,0.0,0.0,52,0.00,,,0.00,WeatherTracker,2013-06-02 15:30:00,
2013-06-02 08:35:00,64.4,45.9,29.67,SSE,155,0.0,0.0,51,0.00,,,0.00,WeatherTracker,2013-06-02 15:35:00,
2013-06-02 08:40:00,64.5,46.5,29.67,SSE,155,0.0,0.0,52,0.00,,,0.00,WeatherTracker,2013-06-02 15:40:00,
2013-06-02 08:45:00,65.3,45.1,29.66,ESE,107,0.0,0.0,48,0.00,,,0.00,WeatherTracker,2013-06-02 15:45:00,
2013-06-02 08:51:00,66.1,44.7,29.66,ESE,107,0.0,0.0,46,0.00,,,0.00,WeatherTracker,2013-06-02 15:51:00,
2013-06-02 08:55:00,66.9,40.5,29.66,ESE,107,0.0,0.0,38,0.00,,,0.00,WeatherTracker,2013-06-02 15:55:00,
2013-06-02 09:01:00,67.2,43.9,29.66,ESE,107,0.0,0.0,43,0.00,,,0.00,WeatherTracker,2013-06-02 16:01:00,
2013-06-02 09:06:00,67.2,46.3,29.66,ESE,107,0.0,0.0,47,0.00,,,0.00,WeatherTracker,2013-06-02 16:06:00,
2013-06-02 09:11:00,67.1,47.8,29.65,ESE,111,0.0,0.0,50,0.00,,,0.00,WeatherTracker,2013-06-02 16:11:00,
2013-06-02 09:16:00,67.6,46.1,29.65,ESE,110,0.0,0.0,46,0.00,,,0.00,WeatherTracker,2013-06-02 16:16:00,
2013-06-02 09:21:00,68.0,45.9,29.65,ESE,108,0.0,0.0,45,0.00,,,0.00,WeatherTracker,2013-06-02 16:21:00,
2013-06-02 09:26:00,68.6,47.6,29.64,ESE,107,0.0,0.0,47,0.00,,,0.00,WeatherTracker,2013-06-02 16:26:00,
2013-06-02 09:31:00,69.1,47.4,29.64,ESE,107,0.0,0.0,46,0.00,,,0.00,WeatherTracker,2013-06-02 16:31:00,
2013-06-02 09:36:00,70.1,45.9,29.64,ESE,106,0.0,0.0,42,0.00,,,0.00,WeatherTracker,2013-06-02 16:36:00,
2013-06-02 09:41:00,70.2,47.3,29.64,ESE,112,0.0,0.0,44,0.00,,,0.00,WeatherTracker,2013-06-02 16:41:00,
2013-06-02 09:46:00,70.3,46.7,29.64,ESE,112,0.0,0.0,43,0.00,,,0.00,WeatherTracker,2013-06-02 16:46:00,
2013-06-02 09:51:00,70.6,41.6,29.63,ESE,115,0.0,0.0,35,0.00,,,0.00,WeatherTracker,2013-06-02 16:51:00,
2013-06-02 09:56:00,71.3,47.0,29.63,ESE,111,0.0,0.0,42,0.00,,,0.00,WeatherTracker,2013-06-02 16:56:00,
2013-06-02 10:01:00,71.5,42.4,29.63,ESE,108,0.0,0.0,35,0.00,,,0.00,WeatherTracker,2013-06-02 17:01:00,
2013-06-02 10:06:00,71.5,40.1,29.63,ESE,107,0.0,0.0,32,0.00,,,0.00,WeatherTracker,2013-06-02 17:06:00,
2013-06-02 10:11:00,71.9,43.5,29.63,SSE,153,0.0,0.0,36,0.00,,,0.00,WeatherTracker,2013-06-02 17:11:00,
2013-06-02 10:16:00,72.4,40.0,29.62,SE,128,0.0,0.0,31,0.00,,,0.00,WeatherTracker,2013-06-02 17:16:00,
2013-06-02 10:21:00,73.2,43.1,29.62,East,90,0.0,0.0,34,0.00,,,0.00,WeatherTracker,2013-06-02 17:21:00,
2013-06-02 10:26:00,73.4,40.1,29.62,East,88,0.0,0.0,30,0.00,,,0.00,WeatherTracker,2013-06-02 17:26:00,
2013-06-02 10:31:00,74.0,40.6,29.62,East,90,0.0,0.0,30,0.00,,,0.00,WeatherTracker,2013-06-02 17:31:00,
2013-06-02 10:36:00,74.1,40.7,29.62,ESE,103,0.0,0.0,30,0.00,,,0.00,WeatherTracker,2013-06-02 17:36:00,
2013-06-02 10:41:00,74.4,39.2,29.62,East,90,0.0,0.0,28,0.00,,,0.00,WeatherTracker,2013-06-02 17:41:00,
2013-06-02 10:46:00,74.5,38.3,29.62,East,87,0.0,0.0,27,0.00,,,0.00,WeatherTracker,2013-06-02 17:46:00,
2013-06-02 10:51:00,75.2,39.8,29.62,ESE,122,0.0,0.0,28,0.00,,,0.00,WeatherTracker,2013-06-02 17:51:00,
2013-06-02 10:56:00,75.3,41.7,29.61,East,79,0.0,0.0,30,0.00,,,0.00,WeatherTracker,2013-06-02 17:56:00,
2013-06-02 11:01:00,75.7,37.4,29.61,ESE,109,0.0,2.0,25,0.00,,,0.00,WeatherTracker,2013-06-02 18:01:00,
2013-06-02 11:06:00,75.7,41.2,29.61,East,99,0.0,2.0,29,0.00,,,0.00,WeatherTracker,2013-06-02 18:06:00,
2013-06-02 11:11:00,76.0,41.4,29.61,East,101,0.0,0.0,29,0.00,,,0.00,WeatherTracker,2013-06-02 18:11:00,
2013-06-02 11:16:00,76.8,41.2,29.60,SE,130,0.0,1.0,28,0.00,,,0.00,WeatherTracker,2013-06-02 18:16:00,
2013-06-02 11:22:00,76.5,41.9,29.60,SE,133,0.0,1.0,29,0.00,,,0.00,WeatherTracker,2013-06-02 18:22:00,
2013-06-02 11:27:00,77.1,43.3,29.60,SE,132,0.0,0.0,30,0.00,,,0.00,WeatherTracker,2013-06-02 18:27:00,
2013-06-02 11:32:00,77.5,41.8,29.60,South,175,0.0,0.0,28,0.00,,,0.00,WeatherTracker,2013-06-02 18:32:00,
2013-06-02 11:37:00,77.1,44.1,29.59,SE,138,0.0,0.0,31,0.00,,,0.00,WeatherTracker,2013-06-02 18:37:00,
2013-06-02 11:42:00,77.8,43.0,29.59,SSE,165,0.0,0.0,29,0.00,,,0.00,WeatherTracker,2013-06-02 18:42:00,
2013-06-02 11:47:00,78.2,42.4,29.59,ESE,114,0.0,0.0,28,0.00,,,0.00,WeatherTracker,2013-06-02 18:47:00,
2013-06-02 11:52:00,78.8,41.0,29.59,ESE,122,0.0,0.0,26,0.00,,,0.00,WeatherTracker,2013-06-02 18:52:00,
2013-06-02 11:57:00,78.9,42.1,29.59,ESE,109,0.0,0.0,27,0.00,,,0.00,WeatherTracker,2013-06-02 18:57:00,
2013-06-02 12:02:00,79.2,40.3,29.58,SE,134,0.0,0.0,25,0.00,,,0.00,WeatherTracker,2013-06-02 19:02:00,
2013-06-02 12:07:00,79.7,40.7,29.58,SSE,166,0.0,0.0,25,0.00,,,0.00,WeatherTracker,2013-06-02 19:07:00,
2013-06-02 12:12:00,80.3,40.2,29.58,South,169,0.0,0.0,24,0.00,,,0.00,WeatherTracker,2013-06-02 19:12:00,
2013-06-02 12:17:00,80.7,41.6,29.58,SE,138,0.0,0.0,25,0.00,,,0.00,WeatherTracker,2013-06-02 19:17:00,
2013-06-02 12:22:00,80.7,39.4,29.57,SE,146,0.0,0.0,23,0.00,,,0.00,WeatherTracker,2013-06-02 19:22:00,
2013-06-02 12:27:00,80.8,41.7,29.57,SE,140,0.0,0.0,25,0.00,,,0.00,WeatherTracker,2013-06-02 19:27:00,
2013-06-02 12:32:00,80.6,40.4,29.57,ESE,106,0.0,0.0,24,0.00,,,0.00,WeatherTracker,2013-06-02 19:32:00,
2013-06-02 12:37:00,81.2,38.7,29.57,SE,143,0.0,0.0,22,0.00,,,0.00,WeatherTracker,2013-06-02 19:37:00,
2013-06-02 12:42:00,81.5,40.1,29.57,SE,128,0.0,0.0,23,0.00,,,0.00,WeatherTracker,2013-06-02 19:42:00,
2013-06-02 12:47:00,81.3,37.6,29.57,South,190,0.0,0.0,21,0.00,,,0.00,WeatherTracker,2013-06-02 19:47:00,
2013-06-02 12:52:00,81.2,39.9,29.56,ESE,123,0.0,0.0,23,0.00,,,0.00,WeatherTracker,2013-06-02 19:52:00,
2013-06-02 12:57:00,81.5,41.2,29.56,ESE,111,0.0,0.0,24,0.00,,,0.00,WeatherTracker,2013-06-02 19:57:00,
2013-06-02 13:02:00,82.1,40.6,29.56,ESE,115,0.0,0.0,23,0.00,,,0.00,WeatherTracker,2013-06-02 20:02:00,
2013-06-02 13:07:00,81.4,41.1,29.56,SSE,153,0.0,0.0,24,0.00,,,0.00,WeatherTracker,2013-06-02 20:07:00,
2013-06-02 13:12:00,82.0,40.5,29.56,ESE,113,0.0,0.0,23,0.00,,,0.00,WeatherTracker,2013-06-02 20:12:00,
2013-06-02 13:18:00,82.1,40.6,29.55,East,88,0.0,0.0,23,0.00,,,0.00,WeatherTracker,2013-06-02 20:18:00,
2013-06-02 13:23:00,82.5,40.9,29.55,SE,132,0.0,0.0,23,0.00,,,0.00,WeatherTracker,2013-06-02 20:23:00,
2013-06-02 13:28:00,82.8,42.3,29.55,East,93,0.0,0.0,24,0.00,,,0.00,WeatherTracker,2013-06-02 20:28:00,
2013-06-02 13:33:00,82.9,40.1,29.55,ESE,108,0.0,0.0,22,0.00,,,0.00,WeatherTracker,2013-06-02 20:33:00,
2013-06-02 13:38:00,82.9,38.9,29.55,SE,131,0.0,0.0,21,0.00,,,0.00,WeatherTracker,2013-06-02 20:38:00,
2013-06-02 13:43:00,82.4,39.7,29.55,ESE,111,0.0,0.0,22,0.00,,,0.00,WeatherTracker,2013-06-02 20:43:00,
2013-06-02 13:48:00,82.6,38.7,29.55,ESE,109,0.0,0.0,21,0.00,,,0.00,WeatherTracker,2013-06-02 20:48:00,
2013-06-02 13:53:00,82.9,41.3,29.54,East,99,0.0,0.0,23,0.00,,,0.00,WeatherTracker,2013-06-02 20:53:00,
2013-06-02 13:58:00,83.1,40.3,29.54,ESE,107,0.0,1.0,22,0.00,,,0.00,WeatherTracker,2013-06-02 20:58:00,
2013-06-02 14:03:00,82.9,40.1,29.54,SE,126,0.0,1.0,22,0.00,,,0.00,WeatherTracker,2013-06-02 21:03:00,
2013-06-02 14:08:00,83.3,38.0,29.54,SE,126,0.0,0.0,20,0.00,,,0.00,WeatherTracker,2013-06-02 21:08:00,
2013-06-02 14:13:00,83.5,40.6,29.54,SE,142,0.0,0.0,22,0.00,,,0.00,WeatherTracker,2013-06-02 21:13:00,
2013-06-02 14:18:00,83.3,39.3,29.54,ESE,121,0.0,0.0,21,0.00,,,0.00,WeatherTracker,2013-06-02 21:18:00,
2013-06-02 14:23:00,83.2,37.9,29.53,SE,128,0.0,0.0,20,0.00,,,0.00,WeatherTracker,2013-06-02 21:23:00,
2013-06-02 14:28:00,82.6,39.9,29.54,SE,144,0.0,0.0,22,0.00,,,0.00,WeatherTracker,2013-06-02 21:28:00,
2013-06-02 14:33:00,83.2,40.4,29.54,SE,132,0.0,0.0,22,0.00,,,0.00,WeatherTracker,2013-06-02 21:33:00,
2013-06-02 14:38:00,83.3,38.0,29.54,SE,128,0.0,0.0,20,0.00,,,0.00,WeatherTracker,2013-06-02 21:38:00,
2013-06-02 14:43:00,83.5,39.4,29.54,NNW,344,1.0,0.0,21,0.00,,,0.00,WeatherTracker,2013-06-02 21:43:00,
2013-06-02 14:48:00,84.1,38.7,29.53,WNW,288,0.0,4.0,20,0.00,,,0.00,WeatherTracker,2013-06-02 21:48:00,
2013-06-02 14:53:00,84.2,37.4,29.53,ESE,105,0.0,4.0,19,0.00,,,0.00,WeatherTracker,2013-06-02 21:53:00,
2013-06-02 14:58:00,84.1,38.7,29.53,NNW,348,1.0,2.0,20,0.00,,,0.00,WeatherTracker,2013-06-02 21:58:00,
2013-06-02 15:03:00,84.2,38.8,29.53,NNE,15,0.0,3.0,20,0.00,,,0.00,WeatherTracker,2013-06-02 22:03:00,
2013-06-02 15:08:00,83.6,37.0,29.53,NNE,19,1.0,3.0,19,0.00,,,0.00,WeatherTracker,2013-06-02 22:08:00,
2013-06-02 15:14:00,83.6,39.5,29.54,NW,319,0.0,13.0,21,0.00,,,0.00,WeatherTracker,2013-06-02 22:14:00,
2013-06-02 15:19:00,84.1,39.9,29.54,NW,314,0.0,13.0,21,0.00,,,0.00,WeatherTracker,2013-06-02 22:19:00,
2013-06-02 15:24:00,84.3,38.8,29.53,East,79,0.0,5.0,20,0.00,,,0.00,WeatherTracker,2013-06-02 22:24:00,
2013-06-02 15:29:00,84.1,37.4,29.54,NNW,328,0.0,5.0,19,0.00,,,0.00,WeatherTracker,2013-06-02 22:29:00,
2013-06-02 15:34:00,83.3,36.7,29.53,NE,34,0.0,2.0,19,0.00,,,0.00,WeatherTracker,2013-06-02 22:34:00,
2013-06-02 15:39:00,83.4,38.1,29.53,NNW,345,0.0,3.0,20,0.00,,,0.00,WeatherTracker,2013-06-02 22:39:00,
2013-06-02 15:44:00,83.0,36.5,29.53,WNW,283,0.0,3.0,19,0.00,,,0.00,WeatherTracker,2013-06-02 22:44:00,
2013-06-02 15:49:00,83.1,35.2,29.54,NW,323,1.0,3.0,18,0.00,,,0.00,WeatherTracker,2013-06-02 22:49:00,
2013-06-02 15:54:00,82.6,34.8,29.54,NNE,15,0.0,3.0,18,0.00,,,0.00,WeatherTracker,2013-06-02 22:54:00,
2013-06-02 15:59:00,82.8,36.3,29.54,NNE,26,0.0,4.0,19,0.00,,,0.00,WeatherTracker,2013-06-02 22:59:00,
2013-06-02 16:04:00,83.2,37.9,29.54,NNW,346,0.0,4.0,20,0.00,,,0.00,WeatherTracker,2013-06-02 23:04:00,
2013-06-02 16:09:00,82.9,36.4,29.54,NE,55,0.0,3.0,19,0.00,,,0.00,WeatherTracker,2013-06-02 23:09:00,
2013-06-02 16:14:00,82.9,36.4,29.54,NNE,13,0.0,4.0,19,0.00,,,0.00,WeatherTracker,2013-06-02 23:14:00,
2013-06-02 16:19:00,83.1,36.6,29.54,NNW,329,0.0,6.0,19,0.00,,,0.00,WeatherTracker,2013-06-02 23:19:00,
2013-06-02 16:24:00,83.0,35.1,29.54,NW,326,0.0,7.0,18,0.00,,,0.00,WeatherTracker,2013-06-02 23:24:00,
2013-06-02 16:29:00,82.4,37.3,29.54,NNW,333,0.0,7.0,20,0.00,,,0.00,WeatherTracker,2013-06-02 23:29:00,
2013-06-02 16:34:00,82.2,37.1,29.54,NW,306,0.0,15.0,20,0.00,,,0.00,WeatherTracker,2013-06-02 23:34:00,
2013-06-02 16:39:00,82.7,36.2,29.54,WNW,301,0.0,15.0,19,0.00,,,0.00,WeatherTracker,2013-06-02 23:39:00,
2013-06-02 16:44:00,82.4,36.0,29.54,North,360,0.0,3.0,19,0.00,,,0.00,WeatherTracker,2013-06-02 23:44:00,
2013-06-02 16:49:00,82.2,34.5,29.54,NNW,339,0.0,5.0,18,0.00,,,0.00,WeatherTracker,2013-06-02 23:49:00,
2013-06-02 16:54:00,82.6,34.8,29.54,NW,318,0.0,5.0,18,0.00,,,0.00,WeatherTracker,2013-06-02 23:54:00,
2013-06-02 17:00:00,82.6,36.1,29.53,NW,315,0.0,2.0,19,0.00,,,0.00,WeatherTracker,2013-06-03 00:00:00,
2013-06-02 17:05:00,82.2,35.8,29.53,NNW,340,2.0,2.0,19,0.00,,,0.00,WeatherTracker,2013-06-03 00:05:00,
2013-06-02 17:10:00,81.9,34.2,29.53,North,5,1.0,4.0,18,0.00,,,0.00,WeatherTracker,2013-06-03 00:10:00,
2013-06-02 17:15:00,81.7,35.4,29.53,WNW,284,0.0,4.0,19,0.00,,,0.00,WeatherTracker,2013-06-03 00:15:00,
2013-06-02 17:20:00,81.4,36.5,29.53,WNW,301,0.0,3.0,20,0.00,,,0.00,WeatherTracker,2013-06-03 00:20:00,
2013-06-02 17:25:00,81.6,34.0,29.53,WSW,250,0.0,3.0,18,0.00,,,0.00,WeatherTracker,2013-06-03 00:25:00,
2013-06-02 17:30:00,81.5,40.1,29.53,ENE,58,0.0,3.0,23,0.00,,,0.00,WeatherTracker,2013-06-03 00:30:00,
2013-06-02 17:35:00,81.7,40.3,29.53,North,360,0.0,3.0,23,0.00,,,0.00,WeatherTracker,2013-06-03 00:35:00,
2013-06-02 17:40:00,82.1,38.3,29.53,NNW,330,0.0,2.0,21,0.00,,,0.00,WeatherTracker,2013-06-03 00:40:00,
2013-06-02 17:45:00,81.7,37.9,29.53,WNW,296,0.0,3.0,21,0.00,,,0.00,WeatherTracker,2013-06-03 00:45:00,
2013-06-02 17:50:00,81.7,37.9,29.53,West,269,0.0,3.0,21,0.00,,,0.00,WeatherTracker,2013-06-03 00:50:00,
2013-06-02 17:55:00,81.6,40.2,29.53,NNW,337,0.0,2.0,23,0.00,,,0.00,WeatherTracker,2013-06-03 00:55:00,
2013-06-02 18:00:00,81.0,41.8,29.53,NE,49,0.0,4.0,25,0.00,,,0.00,WeatherTracker,2013-06-03 01:00:00,
2013-06-02 18:05:00,81.0,41.8,29.53,NNE,24,1.0,4.0,25,0.00,,,0.00,WeatherTracker,2013-06-03 01:05:00,
2013-06-02 18:10:00,80.6,42.5,29.53,East,80,0.0,4.0,26,0.00,,,0.00,WeatherTracker,2013-06-03 01:10:00,
2013-06-02 18:15:00,80.1,41.1,29.53,NE,40,0.0,2.0,25,0.00,,,0.00,WeatherTracker,2013-06-03 01:15:00,
2013-06-02 18:20:00,80.3,43.2,29.53,ENE,78,0.0,1.0,27,0.00,,,0.00,WeatherTracker,2013-06-03 01:20:00,
2013-06-02 18:25:00,80.0,43.0,29.53,ENE,67,0.0,1.0,27,0.00,,,0.00,WeatherTracker,2013-06-03 01:25:00,
2013-06-02 18:30:00,80.3,43.2,29.53,North,5,2.0,2.0,27,0.00,,,0.00,WeatherTracker,2013-06-03 01:30:00,
2013-06-02 18:35:00,80.2,42.2,29.53,NNE,17,0.0,2.0,26,0.00,,,0.00,WeatherTracker,2013-06-03 01:35:00,
2013-06-02 18:40:00,80.2,44.1,29.54,NE,34,0.0,2.0,28,0.00,,,0.00,WeatherTracker,2013-06-03 01:40:00,
2013-06-02 18:45:00,79.9,43.9,29.54,NE,42,0.0,1.0,28,0.00,,,0.00,WeatherTracker,2013-06-03 01:45:00,
2013-06-02 18:51:00,79.1,43.2,29.54,NNE,21,0.0,3.0,28,0.00,,,0.00,WeatherTracker,2013-06-03 01:51:00,
2013-06-02 18:56:00,78.7,43.7,29.54,NE,35,0.0,3.0,29,0.00,,,0.00,WeatherTracker,2013-06-03 01:56:00,
2013-06-02 19:01:00,78.6,43.7,29.54,North,360,0.0,1.0,29,0.00,,,0.00,WeatherTracker,2013-06-03 02:01:00,
2013-06-02 19:06:00,78.2,43.3,29.54,NNE,27,0.0,2.0,29,0.00,,,0.00,WeatherTracker,2013-06-03 02:06:00,
2013-06-02 19:11:00,77.3,43.4,29.54,NE,41,0.0,2.0,30,0.00,,,0.00,WeatherTracker,2013-06-03 02:11:00,
2013-06-02 19:16:00,76.2,43.3,29.54,NNW,341,2.0,2.0,31,0.00,,,0.00,WeatherTracker,2013-06-03 02:16:00,
2013-06-02 19:21:00,75.6,43.6,29.54,North,355,3.0,3.0,32,0.00,,,0.00,WeatherTracker,2013-06-03 02:21:00,
2013-06-02 19:26:00,75.5,43.6,29.54,North,5,1.0,4.0,32,0.00,,,0.00,WeatherTracker,2013-06-03 02:26:00,
2013-06-02 19:31:00,75.4,43.5,29.55,NNE,31,1.0,4.0,32,0.00,,,0.00,WeatherTracker,2013-06-03 02:31:00,
2013-06-02 19:36:00,75.4,43.5,29.55,NNW,348,1.0,4.0,32,0.00,,,0.00,WeatherTracker,2013-06-03 02:36:00,
2013-06-02 19:41:00,75.2,43.3,29.55,North,360,1.0,4.0,32,0.00,,,0.00,WeatherTracker,2013-06-03 02:41:00,
2013-06-02 19:46:00,75.1,43.2,29.55,NNW,336,1.0,4.0,32,0.00,,,0.00,WeatherTracker,2013-06-03 02:46:00,
2013-06-02 19:51:00,75.1,43.2,29.55,NNW,336,1.0,4.0,32,0.00,,,0.00,WeatherTracker,2013-06-03 02:51:00,
2013-06-02 19:56:00,75.3,43.4,29.55,NNW,337,0.0,3.0,32,0.00,,,0.00,WeatherTracker,2013-06-03 02:56:00,
2013-06-02 20:01:00,74.9,43.8,29.56,NNE,25,0.0,3.0,33,0.00,,,0.00,WeatherTracker,2013-06-03 03:01:00,
2013-06-02 20:06:00,74.8,43.0,29.56,NNW,343,0.0,3.0,32,0.00,,,0.00,WeatherTracker,2013-06-03 03:06:00,
2013-06-02 20:11:00,74.5,43.5,29.56,NNW,342,0.0,3.0,33,0.00,,,0.00,WeatherTracker,2013-06-03 03:11:00,
2013-06-02 20:16:00,74.4,42.6,29.56,North,349,1.0,4.0,32,0.00,,,0.00,WeatherTracker,2013-06-03 03:16:00,
2013-06-02 20:21:00,74.4,43.4,29.56,NNW,338,0.0,4.0,33,0.00,,,0.00,WeatherTracker,2013-06-03 03:21:00,
2013-06-02 20:26:00,74.1,43.1,29.56,West,272,0.0,3.0,33,0.00,,,0.00,WeatherTracker,2013-06-03 03:26:00,
2013-06-02 20:31:00,73.7,42.8,29.56,NNE,19,1.0,1.0,33,0.00,,,0.00,WeatherTracker,2013-06-03 03:31:00,
2013-06-02 20:37:00,73.5,42.6,29.56,NNW,340,0.0,3.0,33,0.00,,,0.00,WeatherTracker,2013-06-03 03:37:00,
2013-06-02 20:42:00,73.7,42.8,29.57,NNW,328,0.0,3.0,33,0.00,,,0.00,WeatherTracker,2013-06-03 03:42:00,
2013-06-02 20:47:00,73.9,42.2,29.57,NW,326,1.0,3.0,32,0.00,,,0.00,WeatherTracker,2013-06-03 03:47:00,
2013-06-02 20:52:00,73.3,42.4,29.57,NNW,333,0.0,3.0,33,0.00,,,0.00,WeatherTracker,2013-06-03 03:52:00,
2013-06-02 20:57:00,72.6,41.8,29.57,North,351,0.0,1.0,33,0.00,,,0.00,WeatherTracker,2013-06-03 03:57:00,
2013-06-02 21:01:00,72.6,41.8,29.58,NW,317,0.0,2.0,33,0.00,,,0.00,WeatherTracker,2013-06-03 04:01:00,
2013-06-02 21:02:00,72.6,41.8,29.58,NNW,333,3.0,3.0,33,0.00,,,0.00,WeatherTracker,2013-06-03 04:02:00,
2013-06-02 21:07:00,72.9,42.1,29.58,North,350,0.0,3.0,33,0.00,,,0.00,WeatherTracker,2013-06-03 04:07:00,
2013-06-02 21:12:00,73.1,42.3,29.58,NNW,346,0.0,3.0,33,0.00,,,0.00,WeatherTracker,2013-06-03 04:12:00,
2013-06-02 21:17:00,72.8,41.2,29.58,WSW,250,0.0,3.0,32,0.00,,,0.00,WeatherTracker,2013-06-03 04:17:00,
2013-06-02 21:22:00,71.4,41.6,29.58,WSW,237,0.0,1.0,34,0.00,,,0.00,WeatherTracker,2013-06-03 04:22:00,
2013-06-02 21:27:00,70.7,43.1,29.59,SSW,211,0.0,1.0,37,0.00,,,0.00,WeatherTracker,2013-06-03 04:27:00,
2013-06-02 21:32:00,69.1,43.1,29.59,SSW,209,0.0,0.0,39,0.00,,,0.00,WeatherTracker,2013-06-03 04:32:00,
2013-06-02 21:37:00,67.6,43.1,29.59,WSW,241,0.0,0.0,41,0.00,,,0.00,WeatherTracker,2013-06-03 04:37:00,
2013-06-02 21:42:00,67.2,42.7,29.59,WNW,295,0.0,1.0,41,0.00,,,0.00,WeatherTracker,2013-06-03 04:42:00,
2013-06-02 21:47:00,67.3,42.1,29.60,WNW,296,0.0,1.0,40,0.00,,,0.00,WeatherTracker,2013-06-03 04:47:00,
2013-06-02 21:53:00,68.1,42.2,29.60,NW,315,0.0,0.0,39,0.00,,,0.00,WeatherTracker,2013-06-03 04:53:00,
2013-06-02 21:58:00,67.4,41.6,29.61,NNW,328,0.0,0.0,39,0.00,,,0.00,WeatherTracker,2013-06-03 04:58:00,
2013-06-02 22:03:00,66.6,42.2,29.61,North,355,0.0,0.0,41,0.00,,,0.00,WeatherTracker,2013-06-03 05:03:00,
2013-06-02 22:08:00,65.9,41.5,29.61,North,355,0.0,0.0,41,0.00,,,0.00,WeatherTracker,2013-06-03 05:08:00,
2013-06-02 22:13:00,65.0,40.1,29.61,North,350,0.0,1.0,40,0.00,,,0.00,WeatherTracker,2013-06-03 05:13:00,
2013-06-02 22:18:00,64.4,40.2,29.61,North,355,0.0,1.0,41,0.00,,,0.00,WeatherTracker,2013-06-03 05:18:00,
2013-06-02 22:23:00,63.9,39.7,29.61,North,355,0.0,1.0,41,0.00,,,0.00,WeatherTracker,2013-06-03 05:23:00,
2013-06-02 22:28:00,63.6,40.1,29.61,North,355,0.0,1.0,42,0.00,,,0.00,WeatherTracker,2013-06-03 05:28:00,
2013-06-02 22:33:00,63.8,40.3,29.61,North,355,0.0,0.0,42,0.00,,,0.00,WeatherTracker,2013-06-03 05:33:00,
2013-06-02 22:38:00,62.9,40.1,29.61,North,351,0.0,0.0,43,0.00,,,0.00,WeatherTracker,2013-06-03 05:38:00,
2013-06-02 22:43:00,62.8,40.6,29.61,North,355,0.0,0.0,44,0.00,,,0.00,WeatherTracker,2013-06-03 05:43:00,
2013-06-02 22:48:00,62.4,40.8,29.61,North,355,0.0,0.0,45,0.00,,,0.00,WeatherTracker,2013-06-03 05:48:00,
2013-06-02 22:53:00,61.3,42.5,29.62,South,169,0.0,0.0,50,0.00,,,0.00,WeatherTracker,2013-06-03 05:53:00,
2013-06-02 22:58:00,60.6,42.4,29.62,WSW,256,0.0,0.0,51,0.00,,,0.00,WeatherTracker,2013-06-03 05:58:00,
2013-06-02 23:03:00,62.0,42.1,29.62,WSW,256,0.0,0.0,48,0.00,,,0.00,WeatherTracker,2013-06-03 06:03:00,
2013-06-02 23:08:00,62.1,41.6,29.62,WSW,256,0.0,0.0,47,0.00,,,0.00,WeatherTracker,2013-06-03 06:08:00,
2013-06-02 23:13:00,61.6,40.6,29.62,WSW,256,0.0,0.0,46,0.00,,,0.00,WeatherTracker,2013-06-03 06:13:00,
2013-06-02 23:18:00,61.1,40.7,29.63,WSW,256,0.0,0.0,47,0.00,,,0.00,WeatherTracker,2013-06-03 06:18:00,
2013-06-02 23:23:00,61.1,40.7,29.62,WSW,256,0.0,0.0,47,0.00,,,0.00,WeatherTracker,2013-06-03 06:23:00,
2013-06-02 23:28:00,62.1,41.1,29.62,NW,317,0.0,0.0,46,0.00,,,0.00,WeatherTracker,2013-06-03 06:28:00,
2013-06-02 23:33:00,62.2,40.6,29.63,NNW,332,0.0,0.0,45,0.00,,,0.00,WeatherTracker,2013-06-03 06:33:00,
2013-06-02 23:39:00,61.8,39.7,29.63,NNW,340,0.0,0.0,44,0.00,,,0.00,WeatherTracker,2013-06-03 06:39:00,
2013-06-02 23:44:00,61.7,38.4,29.63,NNW,340,0.0,0.0,42,0.00,,,0.00,WeatherTracker,2013-06-03 06:44:00,
2013-06-02 23:49:00,62.0,39.2,29.63,NNW,332,0.0,0.0,43,0.00,,,0.00,WeatherTracker,2013-06-03 06:49:00,
2013-06-02 23:54:00,59.8,42.6,29.63,South,183,0.0,0.0,53,0.00,,,0.00,WeatherTracker,2013-06-03 06:54:00,
2013-06-02 23:59:00,58.4,42.3,29.63,South,183,0.0,0.0,55,0.00,,,0.00,WeatherTracker,2013-06-03 06:59:00,